Weather History for KTRK - January, 2013

Change the Weather History Date:

Friday, January 25, 2013

  Actual Average Record
Temperature  
Mean Temperature 37 °F -  
Max Temperature 42 °F 41 °F 64 °F (2015)
Min Temperature 32 °F 14 °F -19 °F (1949)
Degree Days  
Heating Degree Days 28    
Moisture  
Dew Point 34 °F    
Average Humidity 98    
Maximum Humidity 100    
Minimum Humidity 87    
Precipitation  
Precipitation 0.01 in - - ()
Snow  
Snow 0.00 in - - ()
Snow Depth 13.00 in    
Sea Level Pressure  
Sea Level Pressure 30.17 in    
Wind  
Wind Speed 1 mph (SSE)    
Max Wind Speed 7 mph    
Max Gust Speed -    
Visibility 4 miles    
Events Fog , Rain    
Averages and records for this station are not official NWS values.
T = Trace of Precipitation, MM = Missing Value Source: NWS Daily Summary

Daily Weather History Graph

Daily Weather History Graph

Search for Another Location

Airport or City:

Trip Planner

Search our weather history database for the weather conditions in past years. The results will help you decide how hot, cold, wet, or windy it might be!

Date:

Astronomy

Jan. 25, 2013 Rise Set
Actual Time 7:13 AM PST 5:13 PM PST
Civil Twilight 6:44 AM PST 5:42 PM PST
Nautical Twilight 6:11 AM PST 6:14 PM PST
Astronomical Twilight 5:40 AM PST 6:46 PM PST
Moon 4:15 PM PST (1/25) 5:56 AM PST (1/25)
Length of Visible Light 10h 57m
Length of Day
10h 00m
Waxing Gibbous, 98% of the Moon is Illuminated
Jan 25
Waxing Gibbous
Jan 26
Full
Feb 3
Last Quarter
Feb 9
New
Feb 17
First Quarter

Hourly Weather History & Observations

Time (PST) Temp. Windchill Dew Point Humidity Pressure Visibility Wind Dir Wind Speed Gust Speed Precip Events Conditions
12:15 AM 32.0 °F - 32.0 °F 100% 30.25 in 0.2 mi Calm Calm - N/A Fog Fog
12:35 AM 32.0 °F - 32.0 °F 100% 30.25 in 0.2 mi Calm Calm - N/A Fog Fog
12:55 AM 32.0 °F - 32.0 °F 100% 30.25 in 0.2 mi Calm Calm - N/A Fog Fog
1:15 AM 32.0 °F - 32.0 °F 100% 30.25 in 0.2 mi Calm Calm - N/A Fog Fog
1:35 AM 32.0 °F - 32.0 °F 100% 30.25 in 0.2 mi Calm Calm - N/A Fog Fog
1:55 AM 32.0 °F - 32.0 °F 100% 30.25 in 0.2 mi Calm Calm - N/A Fog Fog
2:15 AM 32.0 °F - 32.0 °F 100% 30.24 in 0.2 mi Calm Calm - N/A Fog Fog
2:35 AM 32.0 °F 27.5 °F 32.0 °F 100% 30.24 in 0.2 mi NNE 4.6 mph - N/A Fog Fog
2:55 AM 32.0 °F - 32.0 °F 100% 30.24 in 0.2 mi Calm Calm - N/A Fog Fog
3:15 AM 32.0 °F - 32.0 °F 100% 30.23 in 0.2 mi Calm Calm - N/A Fog Fog
3:35 AM 32.0 °F - 32.0 °F 100% 30.23 in 0.2 mi Calm Calm - N/A Fog Fog
3:55 AM 32.0 °F - 32.0 °F 100% 30.23 in 0.2 mi Calm Calm - N/A Fog Fog
4:15 AM 32.0 °F 27.5 °F 32.0 °F 100% 30.23 in 0.2 mi NNE 4.6 mph - N/A Rain Light Rain
4:35 AM 32.0 °F - 32.0 °F 100% 30.23 in 0.2 mi Calm Calm - N/A Fog Fog
4:55 AM 32.0 °F 28.7 °F 32.0 °F 100% 30.23 in 0.2 mi SSW 3.5 mph - N/A Fog Fog
5:15 AM 32.0 °F 28.7 °F 32.0 °F 100% 30.23 in 0.2 mi South 3.5 mph - N/A Fog Fog
5:35 AM 32.0 °F - 32.0 °F 100% 30.23 in 0.5 mi Calm Calm - N/A Rain Light Rain
6:50 AM 32.0 °F - 32.0 °F 100% 30.22 in 0.2 mi Calm Calm - N/A Fog Fog
7:55 AM 32.0 °F - 32.0 °F 100% 30.22 in 0.2 mi Calm Calm - N/A Fog Fog
8:45 AM 32.0 °F - 32.0 °F 100% 30.23 in 0.2 mi Calm Calm - N/A Fog Fog
9:45 AM 32.0 °F - 32.0 °F 100% 30.23 in 5.0 mi Calm Calm - N/A   Mostly Cloudy
11:45 AM 39.2 °F - 37.4 °F 93% 30.19 in 8.0 mi Calm Calm - N/A   Mostly Cloudy
12:50 PM 39.2 °F 37.0 °F 39.2 °F 100% 30.16 in 3.0 mi NNW 3.5 mph - N/A Rain Rain
2:45 PM 41.0 °F - 39.2 °F 93% 30.15 in 10.0 mi Calm Calm - N/A   Overcast
3:45 PM 42.8 °F - 39.2 °F 87% 30.15 in 10.0 mi Calm Calm - N/A   Mostly Cloudy
4:45 PM 39.2 °F 35.9 °F 37.4 °F 93% 30.13 in 10.0 mi South 4.6 mph - N/A   Overcast
4:55 PM 37.4 °F 34.9 °F 37.4 °F 100% 30.13 in 5.0 mi SSE 3.5 mph - N/A Rain Light Rain
5:15 PM 37.4 °F 32.1 °F 35.6 °F 93% 30.12 in 10.0 mi SE 6.9 mph - N/A   Scattered Clouds
5:35 PM 37.4 °F - 35.6 °F 93% 30.13 in 10.0 mi Calm Calm - N/A   Partly Cloudy
5:55 PM 37.4 °F - 37.4 °F 100% 30.14 in 10.0 mi Calm Calm - N/A   Mostly Cloudy
6:15 PM 35.6 °F 32.8 °F 35.6 °F 100% 30.14 in 3.0 mi East 3.5 mph - N/A   Overcast
6:35 PM 35.6 °F 32.8 °F 35.6 °F 100% 30.14 in 0.5 mi South 3.5 mph - N/A Fog Fog
6:55 PM 35.6 °F - 35.6 °F 100% 30.14 in 0.8 mi Calm Calm - N/A   Overcast
7:15 PM 35.6 °F - 33.8 °F 93% 30.13 in 1.0 mi Calm Calm - N/A   Overcast
7:35 PM 33.8 °F 29.6 °F 33.8 °F 100% 30.13 in 1.0 mi SSW 4.6 mph - N/A   Overcast
7:55 PM 33.8 °F - 33.8 °F 100% 30.13 in 9.0 mi Calm Calm - N/A   Overcast
8:15 PM 33.8 °F 29.6 °F 33.8 °F 100% 30.13 in 10.0 mi SSE 4.6 mph - N/A   Overcast
8:35 PM 32.0 °F - 32.0 °F 100% 30.13 in 4.0 mi Calm Calm - N/A   Mostly Cloudy
8:55 PM 33.8 °F - 32.0 °F 93% 30.13 in 5.0 mi Calm Calm - 0.01 in Rain Light Rain
9:15 PM 33.8 °F - 33.8 °F 100% 30.12 in 10.0 mi Calm Calm - N/A   Mostly Cloudy
9:35 PM 35.6 °F 31.7 °F 33.8 °F 93% 30.11 in 10.0 mi SSE 4.6 mph - N/A   Overcast
9:55 PM 32.0 °F - 32.0 °F 100% 30.10 in 4.0 mi Calm Calm - N/A   Overcast
10:15 PM 35.6 °F - 33.8 °F 93% 30.10 in 6.0 mi Calm Calm - N/A   Scattered Clouds
10:35 PM 33.8 °F 30.8 °F 33.8 °F 100% 30.08 in 8.0 mi East 3.5 mph - N/A   Mostly Cloudy
10:55 PM 39.2 °F 37.0 °F 39.2 °F 100% 30.09 in 10.0 mi SW 3.5 mph - N/A   Scattered Clouds
11:15 PM 35.6 °F 30.7 °F 33.8 °F 93% 30.10 in 10.0 mi West 5.8 mph - N/A   Scattered Clouds
11:35 PM 35.6 °F 31.7 °F 32.0 °F 87% 30.10 in 9.0 mi ENE 4.6 mph - N/A   Scattered Clouds
11:55 PM 33.8 °F - 32.0 °F 93% 30.09 in 7.0 mi Calm Calm - N/A   Partly Cloudy